Location: Aciu?a
(46.2833°N, 22.4500°E)
Time: 11:49:55
(UTC+00:00)

Cosmos 1455 - Pass Details

Date: 01 June 2022
Orbit: 492 x 514 km, 82.5° (Epoch: 03 July)

Event Time Altitude Azimuth Distance (km) Brightness Sun altitude
Rises 00:30:25 0° 338° (NNW) 2,585 6.3 -16.3°
Reaches altitude 10° 00:32:48 10° 325° (NW) 1,697 5.1 -16.1°
Maximum altitude 00:35:48 24° 271° (W) 1,069 3.5 -15.8°
Enters shadow 00:36:22 23° 256° (WSW) 1,096 3.4 -15.8°
